Litchfield, IL

10:58 AM CST on February 23, 2017 (GMT -0600)
Litchfield

Weather History for K3LF - November, 2012

Change the Weather History Date:

Thursday, November 22, 2012

  Actual Average (KALN) Record (KALN)
Temperature  
Mean Temperature 54 °F -  
Max Temperature 64 °F 50 °F 73 °F (2010)
Min Temperature 43 °F 34 °F 17 °F (2000)
Degree Days  
Heating Degree Days 12    
Growing Degree Days 4 (Base 50)    
Moisture  
Dew Point 47 °F    
Average Humidity 82    
Maximum Humidity 95    
Minimum Humidity 59    
Precipitation  
Precipitation 0.00 in - - ()
Sea Level Pressure  
Sea Level Pressure 30.03 in    
Wind  
Wind Speed 12 mph (South)    
Max Wind Speed 21 mph    
Max Gust Speed 25 mph    
Visibility 7 miles    
Events Rain , Thunderstorm    
Averages and records for this station are not official NWS values.
T = Trace of Precipitation, MM = Missing Value Source: NWS Daily Summary

Daily Weather History Graph

Daily Weather History Graph

Search for Another Location

Airport or City:

Trip Planner

Search our weather history database for the weather conditions in past years. The results will help you decide how hot, cold, wet, or windy it might be!

Date:

Astronomy

Nov. 22, 2012 Rise Set
Actual Time 6:50 AM CST 4:39 PM CST
Civil Twilight 6:21 AM CST 5:08 PM CST
Nautical Twilight 5:48 AM CST 5:41 PM CST
Astronomical Twilight 5:16 AM CST 6:13 PM CST
Moon 1:23 PM CST (11/22) 1:12 AM CST (11/22)
Length of Visible Light 10h 47m
Length of Day
9h 49m
Waxing Gibbous, 71% of the Moon is Illuminated
Nov 22
Waxing Gibbous
Nov 28
Full
Dec 6
Last Quarter
Dec 13
New
Dec 19
First Quarter

Hourly Weather History & Observations

Time (CST) Temp. Windchill Dew Point Humidity Pressure Visibility Wind Dir Wind Speed Gust Speed Precip Events Conditions
12:15 AM 46.6 °F - 44.1 °F 91% 30.15 in 5.0 mi SSE 6.9 mph - N/A   Clear
12:35 AM 46.6 °F - 43.9 °F 90% 30.14 in 5.0 mi SSE 8.1 mph - N/A   Clear
12:55 AM 46.0 °F 41.4 °F 43.7 °F 92% 30.13 in 4.0 mi SSE 9.2 mph - N/A   Clear
1:15 AM 45.7 °F 42.0 °F 43.2 °F 91% 30.14 in 4.0 mi South 6.9 mph - N/A   Clear
1:35 AM 44.4 °F 40.0 °F 42.3 °F 92% 30.14 in 4.0 mi South 8.1 mph - N/A   Clear
1:55 AM 44.1 °F 40.1 °F 42.3 °F 93% 30.14 in 3.0 mi South 6.9 mph - N/A   Clear
2:15 AM 43.5 °F 38.9 °F 41.9 °F 94% 30.13 in 3.0 mi South 8.1 mph - N/A   Clear
2:35 AM 43.9 °F 38.8 °F 42.4 °F 95% 30.13 in 3.0 mi South 9.2 mph - N/A   Clear
2:55 AM 45.0 °F 40.1 °F 43.3 °F 94% 30.13 in 4.0 mi SSE 9.2 mph - N/A   Clear
3:15 AM 44.6 °F 39.7 °F 42.8 °F 93% 30.12 in 3.0 mi SSE 9.2 mph - N/A   Clear
3:35 AM 44.6 °F 39.7 °F 42.8 °F 93% 30.11 in 3.0 mi South 9.2 mph - N/A   Clear
3:55 AM 44.1 °F 39.0 °F 42.6 °F 95% 30.11 in 3.0 mi SSE 9.2 mph - N/A   Clear
4:15 AM 44.6 °F 39.2 °F 43.0 °F 94% 30.10 in 3.0 mi South 10.4 mph - N/A   Clear
4:35 AM 45.5 °F 40.3 °F 43.7 °F 93% 30.10 in 4.0 mi South 10.4 mph - N/A   Clear
4:55 AM 45.1 °F 39.9 °F 43.3 °F 93% 30.09 in 4.0 mi SSE 10.4 mph - N/A   Clear
5:15 AM 46.0 °F 40.2 °F 44.1 °F 93% 30.09 in 4.0 mi SSE 12.7 mph - N/A   Clear
5:35 AM 45.9 °F 40.0 °F 43.7 °F 92% 30.09 in 4.0 mi South 12.7 mph - N/A   Clear
5:55 AM 45.5 °F 39.9 °F 43.5 °F 93% 30.09 in 4.0 mi SSE 11.5 mph - N/A   Clear
6:15 AM 45.0 °F 39.7 °F 43.2 °F 93% 30.08 in 3.0 mi SSE 10.4 mph - N/A   Clear
6:35 AM 45.1 °F 39.5 °F 43.7 °F 95% 30.08 in 3.0 mi SSE 11.5 mph - N/A   Clear
6:55 AM 45.3 °F 40.1 °F 43.7 °F 94% 30.08 in 2.0 mi SSE 10.4 mph - N/A   Clear
7:15 AM 45.5 °F 40.3 °F 43.7 °F 93% 30.08 in 1.8 mi SSE 10.4 mph - N/A   Mist
7:35 AM 45.9 °F 40.4 °F 44.4 °F 95% 30.08 in 1.8 mi South 11.5 mph - N/A   Mist
7:55 AM 46.8 °F - 44.8 °F 93% 30.08 in 2.0 mi SSE 10.4 mph - N/A   Clear
8:15 AM 47.1 °F - 45.1 °F 93% 30.08 in 2.0 mi South 11.5 mph - N/A   Clear
8:35 AM 48.2 °F - 45.9 °F 92% 30.08 in 2.5 mi South 13.8 mph - N/A   Clear
8:55 AM 49.5 °F - 47.3 °F 92% 30.07 in 2.5 mi South 15.0 mph - N/A   Clear
9:15 AM 50.9 °F - 48.0 °F 90% 30.07 in 3.0 mi South 15.0 mph - N/A   Clear
9:35 AM 52.0 °F - 48.7 °F 89% 30.06 in 4.0 mi South 16.1 mph - N/A   Clear
9:55 AM 53.6 °F - 49.1 °F 85% 30.06 in 5.0 mi South 18.4 mph 23.0 mph N/A   Haze
10:15 AM 54.0 °F - 49.5 °F 85% 30.06 in 5.0 mi South 17.3 mph - N/A   Clear
10:35 AM 55.4 °F - 49.8 °F 81% 30.06 in 5.0 mi South 15.0 mph - N/A   Haze
10:55 AM 55.4 °F - 49.5 °F 80% 30.05 in 7.0 mi South 16.1 mph - N/A   Clear
11:15 AM 56.8 °F - 50.0 °F 78% 30.03 in 7.0 mi South 17.3 mph - N/A   Clear
11:35 AM 59.0 °F - 50.2 °F 73% 30.02 in 7.0 mi South 19.6 mph - N/A   Clear
11:55 AM 59.5 °F - 50.2 °F 71% 30.01 in 7.0 mi South 18.4 mph 23.0 mph N/A   Clear
12:15 PM 60.6 °F - 50.7 °F 70% 30.00 in 10.0 mi South 18.4 mph - N/A   Clear
12:35 PM 61.2 °F - 51.1 °F 69% 30.00 in 10.0 mi South 20.7 mph - N/A   Clear
12:55 PM 61.7 °F - 50.5 °F 67% 29.98 in 10.0 mi South 18.4 mph - N/A   Clear
1:15 PM 61.7 °F - 50.5 °F 67% 29.98 in 10.0 mi South 18.4 mph 25.3 mph N/A   Clear
1:35 PM 61.7 °F - 50.9 °F 68% 29.97 in 10.0 mi South 17.3 mph - N/A   Clear
1:55 PM 62.2 °F - 51.4 °F 68% 29.96 in 10.0 mi South 13.8 mph - N/A   Clear
2:15 PM 63.7 °F - 50.0 °F 61% 29.94 in 10.0 mi South 18.4 mph - N/A   Clear
2:35 PM 63.9 °F - 50.0 °F 61% 29.93 in 10.0 mi South 18.4 mph - N/A   Clear
2:55 PM 64.2 °F - 49.6 °F 59% 29.93 in 10.0 mi South 20.7 mph 24.2 mph N/A   Clear
3:15 PM 63.1 °F - 49.1 °F 60% 29.94 in 10.0 mi South 19.6 mph 24.2 mph N/A   Clear
3:35 PM 62.4 °F - 48.9 °F 61% 29.94 in 10.0 mi South 17.3 mph - N/A   Clear
3:55 PM 61.3 °F - 49.1 °F 64% 29.94 in 10.0 mi South 18.4 mph - N/A   Clear
4:15 PM 60.6 °F - 48.4 °F 64% 29.93 in 10.0 mi South 19.6 mph - N/A   Scattered Clouds
4:35 PM 59.5 °F - 47.8 °F 65% 29.93 in 10.0 mi South 15.0 mph - N/A   Scattered Clouds
4:55 PM 58.5 °F - 48.0 °F 68% 29.93 in 10.0 mi South 16.1 mph - N/A   Clear
5:15 PM 57.4 °F - 48.2 °F 71% 29.94 in 10.0 mi South 13.8 mph - N/A   Clear
5:35 PM 56.5 °F - 48.2 °F 74% 29.94 in 10.0 mi South 16.1 mph - N/A   Scattered Clouds
5:55 PM 57.2 °F - 48.2 °F 72% 29.95 in 10.0 mi South 18.4 mph - N/A   Scattered Clouds
6:15 PM 56.8 °F - 48.2 °F 73% 29.95 in 10.0 mi South 12.7 mph - N/A   Overcast
6:35 PM 57.4 °F - 47.7 °F 70% 29.95 in 10.0 mi South 17.3 mph - N/A   Overcast
6:55 PM 55.6 °F - 49.1 °F 79% 29.95 in 7.0 mi South 17.3 mph - N/A Rain , Thunderstorm Rain
7:15 PM 54.9 °F - 49.6 °F 83% 29.96 in 7.0 mi South 11.5 mph - N/A Rain Light Rain
7:55 PM 54.7 °F - 49.6 °F 83% 29.98 in 10.0 mi SSW 13.8 mph - N/A Rain Light Rain
8:35 PM 56.5 °F - 51.3 °F 83% 29.98 in 10.0 mi SW 13.8 mph - N/A   Overcast
8:55 PM 55.8 °F - 51.4 °F 85% 29.98 in 10.0 mi SW 11.5 mph - N/A   Overcast
9:15 PM 56.3 °F - 51.3 °F 83% 29.98 in 10.0 mi SSW 15.0 mph - N/A   Overcast
9:35 PM 56.5 °F - 52.0 °F 85% 29.99 in 10.0 mi SW 16.1 mph 23.0 mph N/A   Mostly Cloudy
9:55 PM 56.7 °F - 52.3 °F 85% 30.00 in 10.0 mi SW 16.1 mph 21.9 mph N/A   Overcast
10:15 PM 56.7 °F - 52.3 °F 85% 30.00 in 10.0 mi WSW 15.0 mph 20.7 mph N/A   Overcast
10:35 PM 56.8 °F - 52.5 °F 85% 30.01 in 10.0 mi WSW 15.0 mph 21.9 mph N/A   Overcast
10:55 PM 56.5 °F - 52.5 °F 87% 30.02 in 10.0 mi West 12.7 mph 18.4 mph N/A   Overcast
11:15 PM 56.8 °F - 50.4 °F 79% 30.03 in 10.0 mi NW 19.6 mph 25.3 mph N/A   Mostly Cloudy
11:55 PM 50.9 °F - 42.4 °F 73% 30.06 in 10.0 mi NW 18.4 mph - N/A   Clear